GSAT-7A

Last updated on Oct. 1, 2020, 5:42 a.m. UTC

1 43864U 18105A   20274.89077049  .00000013  00000-0  00000+0 0  9992
2 43864   0.0516  95.8823 0002290  97.0381 200.6132  1.00271128  6557
UTC
Height (km)
Latitude
Longitude
Inclination
Orbital Period
UTC large
Height (km)
Speed (km/s)
/
Latitude / Longitude
Inclination (degrees)
Orbital Period (minutes)
Azimuth
Elevation
Range (km)
Doppler Factor
iOS Compass Heading
iOS Angle

Next 30 passes for location: Hong Kong

Rise time Rise Azimuth (degrees) Set time Set Azimuth (degrees) Duration Max altitude (degrees)

No matching passes for this satellites